Showing default

OV1-4, 2121

Orbit data source: Space-Track

OV1-4, 2121 is a payload satellite owned by USAF OAR (US) in LEO that was launched on Wed, 30 Mar 1966 UTC via an ATLAS D launch vehicle from the Air Force Western Test Range (AFWTR). Payload-class satellites include a variety of spacecraft equipped with specific instruments for various scientific and technological missions. These include communications satellites like Starlink; space stations such as the ISS; scientific satellites like the Hubble; Earth observation satellites from companies like Planet Labs, Umbra, and HawkEye 360; GPS; miniature CubeSats for education and research; and military/defense satellites.

Loading next visibility...
Identifier
2121, 1966-025A
Orbit
LEO
Country
Flag of USUS
Related business
Manufacturer
GD/Convair
Mission
Spacecraft
Bus & Motor
OV1, Unknown motor
Mass
87 kg wet, 87 kg dry
Launch date (UTC)
1966-03-30 (60 years ago)
Launch vehicle
ATLAS D
Launch site
Air Force Western Test Range (AFWTR)
Object type
Payload
Rocket body
Debris
Shape & HBR
Unknown
Radar Cross Section
Medium (>0.1 m² and <1 m²)

Expand to show TLE details & history
Last TLE update: 13 hours ago

TLE from 13 hours ago
0 OV1-4
1 02121U 66025A   25347.30399155  .00000384  00000-0  94013-4 0  9997
2 02121 144.5015 149.3048 0082756 118.8251 242.0760 13.87294933 25312
Epoch: 2025-12-13T07:17Z
TLE epoch observation values (Epoch: 2025-12-13T07:17:44.869Z)
Latitude
-0.00003°
Longitude
-42.36529°
Altitude
965.885 km
Speed
7.356 km/s
True Right ascension
09h 57m 13s
True Declination
0° 00' 00"
Sunlit
Object was in daylight at epoch
Visualization orbit readout
Latitude
Unknown
Longitude
Unknown
Altitude
Unknown
Speed
Unknown
Apparent Right ascension
Unknown
Apparent Declination
Unknown
Sunlit
N/A
Visualization observer readout
Local Sidereal Time
19:15:45
Azimuth
Unknown
Elevation
Unknown
Doppler factor
Unknown
Orbital elements
Apogee altitude
1,001.678 km
Perigee altitude
880.536 km
Semi-major axis
7,319.244 km
Eccentricity
0.00828
Inclination
144.5015°
RAAN
149.3048°
Arg. of periapsis
118.8251°
True anomaly
241.24217°
Mean anomaly
242.076°
Eccentric anomaly
241.65868°
Mean motion
3.46612 °/min
Orbital period
103.86 mins
BSTAR
0.000094013
Loading maneuver chart data...
Computing Atmospheric mass density...
Loading historical data...
Loading historical data...
Loading historical data...
Loading historical data...
Loading historical data...
Loading historical data...
Loading historical data...

Documentation

Showing up to 5 results
|